Satellite-Ground Cal/Val Region Overpasses Predictions

Prediction of Satellite NPP Overpassing Cal/Val Region: PacNW

Region Location: (Latitude: 10.00, Longitude: 139.50) to (Latitude: 22.70, Longitude: 165.60).

Table of predicted overpasses for the next 14.0 days since TLE Epoch: 1/4/2014
Interval Starting Time Starting Location Ending Time Ending Location
1 01/04/2014 14:48:22 ( 22.67, 163.43) 01/04/2014 14:51:57 ( 10.05, 160.41)
2 01/05/2014 03:38:57 ( 10.03, 145.55) 01/05/2014 03:42:32 ( 22.65, 142.53)
3 01/05/2014 14:32:24 ( 11.92, 165.60) 01/05/2014 14:32:56 ( 10.04, 165.17)
4 01/05/2014 16:10:51 ( 22.66, 142.81) 01/05/2014 16:14:26 ( 10.04, 139.79)
5 01/06/2014 03:19:57 ( 10.05, 150.30) 01/06/2014 03:23:32 ( 22.66, 147.29)
6 01/06/2014 15:51:51 ( 22.64, 147.56) 01/06/2014 15:55:26 ( 10.02, 144.55)
7 01/07/2014 03:00:56 ( 10.00, 155.07) 01/07/2014 03:04:32 ( 22.68, 152.04)
8 01/07/2014 15:32:49 ( 22.69, 152.33) 01/07/2014 15:36:25 ( 10.01, 149.30)
9 01/08/2014 02:41:55 ( 10.02, 159.82) 01/08/2014 02:45:31 ( 22.69, 156.80)
10 01/08/2014 15:13:49 ( 22.67, 157.08) 01/08/2014 15:17:24 ( 10.05, 154.07)
11 01/09/2014 02:22:55 ( 10.03, 164.58) 01/09/2014 02:26:30 ( 22.65, 161.56)
12 01/09/2014 14:54:48 ( 22.65, 161.83) 01/09/2014 14:58:23 ( 10.03, 158.82)
13 01/10/2014 03:45:24 ( 10.05, 143.96) 01/10/2014 03:48:59 ( 22.67, 140.94)
14 01/10/2014 14:36:57 ( 18.59, 165.59) 01/10/2014 14:39:23 ( 10.01, 163.58)
15 01/10/2014 16:17:17 ( 22.69, 141.23) 01/10/2014 16:19:17 ( 15.65, 139.51)
16 01/11/2014 03:26:23 ( 10.01, 148.72) 01/11/2014 03:29:59 ( 22.69, 145.70)
17 01/11/2014 15:58:16 ( 22.67, 145.98) 01/11/2014 16:01:51 ( 10.05, 142.97)
18 01/12/2014 03:07:22 ( 10.04, 153.48) 01/12/2014 03:10:57 ( 22.65, 150.46)
19 01/12/2014 15:39:16 ( 22.65, 150.73) 01/12/2014 15:42:51 ( 10.02, 147.72)
20 01/13/2014 02:48:22 ( 10.06, 158.23) 01/13/2014 02:51:57 ( 22.68, 155.22)
21 01/13/2014 15:20:14 ( 22.68, 155.50) 01/13/2014 15:23:50 ( 10.00, 152.47)
22 01/14/2014 02:29:20 ( 10.02, 163.00) 01/14/2014 02:32:55 ( 22.64, 159.98)
23
